Погода в Порошково

Украина / Закарпатская область     48°39′51″N   22°45′04″E
темп.,
°C
ветер,
м/с
пор.,
м/с
влажн.,
%
обл.,
%
осадки,
мм/ч
давл.,
гПа
погр.,
м
20 января, чт
чт2023:00−5ю2497100 0.1 1026177
02:00−5ю3796100 0.4 1023625
05:00−5ю3896100 0.6 1020578
08:00−6ю31196100 1.8 1019607
11:00−5ю3693100 1.6 1017459
14:00−5ю2695100 4.1 1014415
17:00−5ююв1297100 2.5 1012128
20:00−6сз139479 4.9 1013111
21 января, пт
пт2123:00−12ссз119462 0.0 101710
02:00−13в119548 0.0 10189
05:00−13всв119574 0.0 101810
08:00−13св119468 0.0 101910
11:00−6з14875 0.0 1018341
14:00−5зсз3779100 0.1 10181017
17:00−6зюз2596100 1.1 1018383
20:00−10зюз119996 1.8 101910
22 января, сб
сб2223:00−12ссв1198100 0.1 102110
02:00−10с1197100 0.3 102012
05:00−10ссз119898 0.3 102010
08:00−12ссв119885 0.4 102110
11:00−7зюз1292100 0.2 1020259
14:00−4з1490100 1.0 1019532
17:00−7сз119679 0.6 102119
20:00−10ссв229670 0.8 102430
23 января, вс
вс2323:00−11с2296100 0.0 102526
02:00−11с219788 0.1 102414
05:00−7ссз279699 0.9 1023578
08:00−7ссв249695 1.6 1025237
11:00−6ссв3780100 0.1 1026861
14:00−5ссв467797 0.1 10261121
17:00−9ссв249120 0.0 102957
20:00−12ссв339428 0.1 103250
24 января, пн
пн2423:00−13ссв349429 0.0 103347
02:00−14св33947 0.0 103438
05:00−15св22957 0.0 103532
08:00−15св33957 0.0 103645
11:00−9св24836 0.0 1035255
14:00−6св23776 0.0 1033485
17:00−11св22945 0.0 103514
20:00−14св22957 0.0 103621